QPF
0.00 0.00 0.00 0.00 0.01 0.01 0.02 0.02 0.03 0.04 0.06 0.07 0.06 0.05 0.05 0.05 0.04 0.03 0.02 0.02 0.01 0.01 0.01 0.01 0.01 0.01 0.01 0.02 0.03 0.03 0.03 0.02 0.02 0.02 0.01 0.00 0.00 0.00 0.00 0.00 0.00 0.00 0.00
0.00 0.00 0.00 0.00 0.00 0.01 0.01 0.02 0.04 0.06 0.06 0.06 0.06 0.06 0.06 0.06 0.05 0.04 0.03 0.02 0.01 0.01 0.01 0.01 0.01 0.02 0.02 0.02 0.02 0.03 0.03 0.02 0.02 0.02 0.02 0.01 0.00 0.00 0.00 0.00 0.00 0.00 0.00
0.00 0.00 0.00 0.00 0.00 0.01 0.01 0.01 0.03 0.05 0.06 0.06 0.06 0.05 0.05 0.04 0.04 0.03 0.03 0.02 0.01 0.01 0.01 0.01 0.01 0.01 0.01 0.01 0.01 0.02 0.02 0.02 0.01 0.02 0.02 0.02 0.01 0.01 0.00 0.00 0.00 0.00 0.00
0.00 0.00 0.00 0.00 0.00 0.01 0.01 0.01 0.02 0.03 0.04 0.05 0.04 0.04 0.03 0.03 0.05 0.04 0.03 0.02 0.02 0.02 0.01 0.01 0.01 0.01 0.01 0.01 0.01 0.01 0.01 0.02 0.01 0.01 0.01 0.02 0.02 0.02 0.01 0.01 0.00 0.00 0.00
0.00 0.00 0.00 0.00 0.00 0.00 0.01 0.01 0.01 0.01 0.01 0.02 0.03 0.03 0.03 0.03 0.03 0.02 0.02 0.02 0.01 0.01 0.01 0.01 0.01 0.01 0.01 0.00 0.00 0.00 0.01 0.01 0.01 0.01 0.01 0.01 0.02 0.02 0.03 0.02 0.01 0.01 0.00
0.00 0.00 0.00 0.00 0.00 0.00 0.01 0.01 0.01 0.01 0.01 0.01 0.01 0.01 0.02 0.02 0.02 0.01 0.01 0.01 0.00 0.00 0.00 0.00 0.01 0.00 0.00 0.00 0.00 0.00 0.00 0.00 0.01 0.01 0.01 0.02 0.02 0.02 0.02 0.02 0.02 0.02 0.01
0.00 0.00 0.00 0.00 0.00 0.00 0.00 0.00 0.01 0.01 0.01 0.00 0.01 0.01 0.01 0.01 0.01 0.01 0.01 0.01 0.01 0.00 0.00 0.00 0.00 0.00 0.00 0.00 0.00 0.00 0.00 0.00 0.00 0.01 0.01 0.01 0.02 0.02 0.03 0.03 0.02 0.02 0.01
0.00 0.00 0.00 0.00 0.00 0.00 0.00 0.00 0.00 0.00 0.01 0.01 0.01 0.01 0.00 0.01 0.01 0.01 0.00 0.00 0.00 0.00 0.00 0.00 0.00 0.00 0.00 0.00 0.00 0.00 0.00 0.00 0.00 0.01 0.01 0.01 0.01 0.01 0.01 0.01 0.02 0.02 0.01
0.00 0.00 0.00 0.00 0.00 0.00 0.00 0.00 0.00 0.00 0.00 0.00 0.00 0.00 0.00 0.00 0.00 0.00 0.00 0.00 0.00 0.00 0.00 0.00 0.00 0.00 0.00 0.00 0.00 0.00 0.00 0.00 0.00 0.00 0.00 0.00 0.00 0.00 0.00 0.00 0.01 0.01 0.01
0.00 0.00 0.00 0.00 0.00 0.00 0.00 0.00 0.00 0.00 0.00 0.00 0.00 0.00 0.00 0.00 0.00 0.00 0.00 0.00 0.00 0.00 0.00 0.00 0.00 0.00 0.00 0.00 0.00 0.00 0.00 0.00 0.00 0.00 0.00 0.00 0.00 0.00 0.00 0.00 0.00 0.01 0.01
0.00 0.00 0.00 0.00 0.00 0.00 0.00 0.00 0.00 0.00 0.00 0.00 0.00 0.00 0.00 0.00 0.00 0.00 0.00 0.00 0.00 0.00 0.00 0.00 0.00 0.00 0.00 0.00 0.00 0.00 0.00 0.00 0.00 0.00 0.00 0.00 0.00 0.00 0.00 0.00 0.00 0.00 0.00
0.00 0.00 0.00 0.00 0.00 0.00 0.00 0.00 0.00 0.00 0.00 0.00 0.00 0.00 0.00 0.00 0.00 0.00 0.00 0.00 0.00 0.00 0.00 0.00 0.00 0.00 0.00 0.00 0.00 0.00 0.00 0.00 0.00 0.00 0.00 0.00 0.00 0.00 0.00 0.00 0.00 0.00 0.00
0.00 0.00 0.00 0.00 0.00 0.00 0.00 0.00 0.00 0.00 0.00 0.00 0.00 0.00 0.00 0.00 0.00 0.00 0.00 0.00 0.00 0.00 0.00 0.00 0.00 0.00 0.00 0.00 0.00 0.00 0.00 0.00 0.00 0.00 0.00 0.00 0.00 0.00 0.00 0.00 0.00 0.00 0.00
0.00 0.00 0.00 0.00 0.00 0.00 0.00 0.00 0.00 0.00 0.00 0.00 0.00 0.00 0.00 0.00 0.00 0.00 0.00 0.00 0.00 0.00 0.00 0.00 0.00 0.00 0.00 0.00 0.00 0.00 0.00 0.00 0.00 0.00 0.00 0.00 0.00 0.00 0.00 0.00 0.00 0.00 0.00
0.00 0.00 0.00 0.00 0.00 0.00 0.00 0.00 0.00 0.00 0.00 0.00 0.00 0.00 0.00 0.00 0.00 0.00 0.00 0.00 0.00 0.00 0.00 0.00 0.00 0.00 0.00 0.00 0.00 0.00 0.00 0.00 0.00 0.00 0.00 0.00 0.00 0.00 0.00 0.00 0.00 0.00 0.00
0.00 0.00 0.00 0.00 0.00 0.00 0.00 0.00 0.00 0.00 0.00 0.00 0.00 0.00 0.00 0.00 0.00 0.00 0.00 0.00 0.00 0.00 0.00 0.00 0.00 0.00 0.00 0.00 0.00 0.00 0.00 0.00 0.00 0.00 0.00 0.00 0.00 0.00 0.00 0.00 0.00 0.00 0.00
0.00 0.00 0.00 0.00 0.00 0.00 0.00 0.00 0.00 0.00 0.00 0.00 0.00 0.00 0.00 0.00 0.00 0.00 0.00 0.00 0.00 0.00 0.00 0.00 0.00 0.00 0.00 0.00 0.00 0.00 0.00 0.00 0.00 0.00 0.00 0.00 0.00 0.00 0.00 0.00 0.00 0.00 0.00
0.00 0.00 0.00 0.00 0.00 0.00 0.00 0.00 0.00 0.00 0.00 0.00 0.00 0.00 0.00 0.00 0.00 0.00 0.00 0.00 0.00 0.00 0.00 0.00 0.00 0.00 0.00 0.00 0.00 0.00 0.00 0.00 0.00 0.00 0.00 0.00 0.00 0.00 0.00 0.00 0.00 0.00 0.00
0.00 0.00 0.00 0.00 0.00 0.00 0.00 0.00 0.00 0.00 0.00 0.00 0.00 0.00 0.00 0.00 0.00 0.00 0.00 0.00 0.00 0.00 0.00 0.00 0.00 0.00 0.00 0.00 0.00 0.00 0.00 0.00 0.00 0.00 0.00 0.00 0.00 0.00 0.00 0.00 0.00 0.00 0.00
0.00 0.00 0.00 0.00 0.00 0.00 0.00 0.00 0.00 0.00 0.00 0.00 0.00 0.00 0.00 0.00 0.00 0.00 0.00 0.00 0.00 0.00 0.00 0.00 0.00 0.00 0.00 0.00 0.00 0.00 0.00 0.00 0.00 0.00 0.00 0.00 0.00 0.00 0.00 0.00 0.00 0.00 0.00
0.00 0.00 0.00 0.00 0.00 0.00 0.00 0.00 0.00 0.00 0.00 0.00 0.00 0.00 0.00 0.00 0.00 0.00 0.00 0.00 0.00 0.00 0.00 0.00 0.00 0.00 0.00 0.00 0.00 0.00 0.00 0.00 0.00 0.00 0.00 0.00 0.00 0.00 0.00 0.00 0.00 0.00 0.00
0.00 0.00 0.00 0.00 0.00 0.00 0.00 0.00 0.00 0.00 0.00 0.00 0.00 0.00 0.00 0.00 0.00 0.00 0.00 0.00 0.00 0.00 0.00 0.00 0.00 0.00 0.00 0.00 0.00 0.00 0.00 0.00 0.00 0.00 0.00 0.00 0.00 0.00 0.00 0.00 0.00 0.00 0.00
0.00 0.00 0.00 0.00 0.00 0.00 0.00 0.00 0.00 0.00 0.00 0.00 0.00 0.00 0.00 0.00 0.00 0.00 0.00 0.00 0.00 0.00 0.00 0.00 0.00 0.00 0.00 0.00 0.00 0.00 0.00 0.00 0.00 0.00 0.00 0.00 0.00 0.00 0.00 0.00 0.00 0.00 0.00
0.00 0.00 0.00 0.00 0.00 0.00 0.00 0.00 0.00 0.00 0.00 0.00 0.00 0.01 0.01 0.01 0.01 0.01 0.01 0.01 0.00 0.00 0.00 0.00 0.00 0.00 0.00 0.00 0.00 0.00 0.00 0.00 0.00 0.00 0.00 0.00 0.00 0.00 0.00 0.00 0.00 0.00 0.00
0.00 0.00 0.00 0.00 0.00 0.00 0.00 0.00 0.01 0.01 0.01 0.01 0.01 0.01 0.01 0.02 0.01 0.01 0.01 0.01 0.01 0.01 0.01 0.00 0.00 0.00 0.00 0.00 0.01 0.00 0.00 0.00 0.00 0.00 0.00 0.00 0.00 0.00 0.00 0.00 0.00 0.00 0.00
0.00 0.00 0.00 0.00 0.00 0.01 0.01 0.01 0.01 0.01 0.01 0.01 0.01 0.02 0.02 0.02 0.02 0.02 0.01 0.01 0.01 0.01 0.01 0.01 0.00 0.00 0.00 0.00 0.01 0.00 0.00 0.00 0.00 0.00 0.00 0.00 0.00 0.00 0.00 0.00 0.00 0.00 0.00
MSLP
1012.68 1013.04 1013.38 1013.64 1013.82 1013.96 1014.10 1014.26 1014.51 1014.84 1015.24 1015.69 1016.15 1016.58 1016.95 1017.24 1017.45 1017.61 1017.74 1017.88 1018.03 1018.22 1018.43 1018.66 1018.88 1019.09 1019.28 1019.44 1019.57 1019.68 1019.77 1019.84 1019.86 1019.84 1019.76 1019.60 1019.37 1019.08 1018.76 1018.44 1018.17 1017.97 1017.88
1012.37 1012.76 1013.13 1013.42 1013.63 1013.80 1013.94 1014.12 1014.38 1014.72 1015.14 1015.61 1016.09 1016.54 1016.93 1017.24 1017.47 1017.64 1017.79 1017.94 1018.11 1018.31 1018.53 1018.76 1018.98 1019.17 1019.33 1019.45 1019.55 1019.63 1019.70 1019.75 1019.78 1019.76 1019.69 1019.54 1019.31 1019.01 1018.67 1018.33 1018.03 1017.81 1017.71
1012.10 1012.51 1012.90 1013.23 1013.48 1013.68 1013.85 1014.05 1014.32 1014.67 1015.09 1015.57 1016.05 1016.51 1016.90 1017.22 1017.47 1017.67 1017.84 1018.02 1018.22 1018.43 1018.67 1018.90 1019.11 1019.27 1019.39 1019.47 1019.52 1019.56 1019.60 1019.63 1019.66 1019.66 1019.61 1019.48 1019.28 1018.99 1018.65 1018.31 1018.00 1017.79 1017.69
1011.91 1012.34 1012.75 1013.11 1013.40 1013.63 1013.83 1014.05 1014.32 1014.67 1015.08 1015.54 1016.02 1016.46 1016.86 1017.18 1017.45 1017.68 1017.89 1018.10 1018.34 1018.58 1018.84 1019.07 1019.27 1019.41 1019.49 1019.52 1019.52 1019.51 1019.51 1019.53 1019.55 1019.57 1019.54 1019.45 1019.27 1019.02 1018.71 1018.38 1018.10 1017.89 1017.81
1011.82 1012.26 1012.70 1013.08 1013.40 1013.65 1013.88 1014.10 1014.38 1014.71 1015.10 1015.53 1015.98 1016.41 1016.79 1017.12 1017.41 1017.67 1017.92 1018.18 1018.46 1018.75 1019.03 1019.27 1019.45 1019.56 1019.61 1019.59 1019.54 1019.49 1019.46 1019.46 1019.48 1019.51 1019.51 1019.45 1019.31 1019.10 1018.83 1018.54 1018.28 1018.10 1018.05
1011.85 1012.29 1012.74 1013.14 1013.48 1013.75 1013.98 1014.21 1014.46 1014.77 1015.13 1015.53 1015.94 1016.34 1016.71 1017.05 1017.36 1017.65 1017.95 1018.26 1018.59 1018.91 1019.22 1019.47 1019.65 1019.74 1019.75 1019.70 1019.62 1019.53 1019.47 1019.45 1019.47 1019.50 1019.52 1019.49 1019.39 1019.22 1018.99 1018.74 1018.52 1018.37 1018.34
1011.98 1012.42 1012.87 1013.27 1013.61 1013.88 1014.11 1014.33 1014.57 1014.85 1015.18 1015.54 1015.92 1016.30 1016.66 1017.01 1017.34 1017.66 1018.00 1018.36 1018.73 1019.09 1019.41 1019.68 1019.85 1019.94 1019.93 1019.85 1019.73 1019.62 1019.54 1019.50 1019.51 1019.55 1019.58 1019.57 1019.50 1019.37 1019.18 1018.96 1018.78 1018.66 1018.65
1012.18 1012.61 1013.04 1013.43 1013.75 1014.01 1014.23 1014.44 1014.66 1014.93 1015.23 1015.57 1015.93 1016.30 1016.66 1017.02 1017.37 1017.73 1018.10 1018.49 1018.88 1019.26 1019.60 1019.87 1020.04 1020.12 1020.10 1020.01 1019.88 1019.76 1019.66 1019.62 1019.62 1019.65 1019.68 1019.69 1019.64 1019.53 1019.37 1019.19 1019.04 1018.95 1018.96
1012.41 1012.80 1013.20 1013.56 1013.86 1014.10 1014.31 1014.52 1014.74 1015.00 1015.30 1015.64 1016.00 1016.37 1016.74 1017.11 1017.48 1017.86 1018.25 1018.65 1019.05 1019.43 1019.77 1020.03 1020.20 1020.27 1020.25 1020.17 1020.04 1019.92 1019.83 1019.78 1019.78 1019.81 1019.84 1019.85 1019.81 1019.72 1019.58 1019.42 1019.29 1019.22 1019.25
1012.61 1012.96 1013.30 1013.62 1013.88 1014.11 1014.32 1014.53 1014.77 1015.05 1015.38 1015.74 1016.12 1016.51 1016.91 1017.29 1017.68 1018.06 1018.45 1018.84 1019.23 1019.59 1019.91 1020.16 1020.32 1020.39 1020.38 1020.30 1020.20 1020.10 1020.02 1019.99 1019.99 1020.02 1020.05 1020.05 1020.02 1019.94 1019.82 1019.68 1019.57 1019.51 1019.54
1012.74 1013.02 1013.30 1013.56 1013.80 1014.01 1014.23 1014.47 1014.75 1015.07 1015.45 1015.85 1016.28 1016.71 1017.13 1017.54 1017.94 1018.32 1018.69 1019.06 1019.41 1019.73 1020.01 1020.23 1020.38 1020.45 1020.46 1020.41 1020.35 1020.28 1020.24 1020.23 1020.25 1020.28 1020.32 1020.32 1020.29 1020.22 1020.11 1019.99 1019.89 1019.85 1019.88
1012.77 1012.97 1013.18 1013.39 1013.59 1013.80 1014.04 1014.32 1014.65 1015.05 1015.49 1015.96 1016.44 1016.92 1017.38 1017.81 1018.21 1018.58 1018.93 1019.26 1019.56 1019.84 1020.08 1020.27 1020.40 1020.48 1020.51 1020.51 1020.49 1020.48 1020.48 1020.51 1020.55 1020.61 1020.65 1020.66 1020.63 1020.56 1020.46 1020.36 1020.28 1020.25 1020.29
1012.70 1012.82 1012.95 1013.10 1013.28 1013.49 1013.76 1014.09 1014.49 1014.96 1015.47 1016.02 1016.57 1017.10 1017.60 1018.05 1018.45 1018.81 1019.13 1019.42 1019.68 1019.91 1020.11 1020.28 1020.40 1020.49 1020.55 1020.60 1020.64 1020.68 1020.74 1020.82 1020.90 1020.98 1021.03 1021.05 1021.03 1020.98 1020.89 1020.80 1020.74 1020.71 1020.76
1012.57 1012.60 1012.66 1012.76 1012.91 1013.13 1013.43 1013.81 1014.27 1014.81 1015.39 1016.00 1016.61 1017.19 1017.72 1018.20 1018.61 1018.96 1019.26 1019.53 1019.75 1019.95 1020.13 1020.28 1020.41 1020.52 1020.62 1020.71 1020.81 1020.91 1021.03 1021.15 1021.27 1021.37 1021.45 1021.48 1021.47 1021.43 1021.36 1021.28 1021.23 1021.22 1021.27
1012.41 1012.37 1012.36 1012.42 1012.55 1012.77 1013.09 1013.51 1014.02 1014.61 1015.25 1015.90 1016.55 1017.17 1017.73 1018.22 1018.65 1019.01 1019.31 1019.56 1019.78 1019.98 1020.14 1020.30 1020.44 1020.58 1020.71 1020.85 1021.00 1021.15 1021.32 1021.48 1021.63 1021.76 1021.85 1021.90 1021.91 1021.87 1021.82 1021.76 1021.72 1021.73 1021.78
1012.29 1012.17 1012.12 1012.14 1012.25 1012.47 1012.80 1013.24 1013.78 1014.39 1015.05 1015.73 1016.40 1017.03 1017.61 1018.12 1018.57 1018.95 1019.27 1019.54 1019.78 1019.98 1020.17 1020.34 1020.51 1020.67 1020.84 1021.02 1021.20 1021.40 1021.59 1021.78 1021.96 1022.10 1022.21 1022.26 1022.28 1022.26 1022.22 1022.18 1022.16 1022.17 1022.23
1012.24 1012.08 1011.98 1011.97 1012.07 1012.28 1012.61 1013.05 1013.58 1014.19 1014.84 1015.51 1016.17 1016.81 1017.39 1017.92 1018.39 1018.80 1019.16 1019.47 1019.74 1019.99 1020.21 1020.42 1020.61 1020.80 1020.99 1021.19 1021.39 1021.60 1021.81 1022.02 1022.20 1022.35 1022.46 1022.52 1022.55 1022.55 1022.52 1022.50 1022.49 1022.52 1022.58
1012.29 1012.10 1011.99 1011.97 1012.05 1012.25 1012.56 1012.98 1013.48 1014.06 1014.67 1015.30 1015.93 1016.54 1017.12 1017.66 1018.15 1018.60 1019.00 1019.37 1019.70 1019.99 1020.25 1020.49 1020.72 1020.93 1021.13 1021.33 1021.54 1021.74 1021.95 1022.14 1022.32 1022.47 1022.58 1022.65 1022.69 1022.70 1022.70 1022.69 1022.70 1022.74 1022.81
1012.44 1012.25 1012.13 1012.11 1012.18 1012.37 1012.66 1013.04 1013.50 1014.02 1014.58 1015.15 1015.73 1016.30 1016.86 1017.39 1017.90 1018.38 1018.83 1019.25 1019.63 1019.97 1020.28 1020.55 1020.79 1021.01 1021.21 1021.40 1021.59 1021.78 1021.97 1022.15 1022.31 1022.46 1022.57 1022.65 1022.71 1022.74 1022.75 1022.77 1022.79 1022.84 1022.92
1012.66 1012.48 1012.38 1012.36 1012.44 1012.62 1012.89 1013.23 1013.64 1014.09 1014.58 1015.08 1015.60 1016.13 1016.65 1017.17 1017.68 1018.18 1018.66 1019.12 1019.53 1019.91 1020.25 1020.54 1020.78 1021.00 1021.19 1021.37 1021.53 1021.70 1021.86 1022.03 1022.18 1022.32 1022.45 1022.55 1022.62 1022.68 1022.72 1022.76 1022.81 1022.87 1022.95
1012.90 1012.74 1012.66 1012.67 1012.76 1012.94 1013.19 1013.50 1013.86 1014.25 1014.67 1015.11 1015.56 1016.03 1016.51 1017.00 1017.50 1018.00 1018.48 1018.95 1019.39 1019.78 1020.12 1020.41 1020.66 1020.86 1021.04 1021.19 1021.34 1021.49 1021.64 1021.79 1021.95 1022.10 1022.24 1022.37 1022.47 1022.56 1022.64 1022.70 1022.77 1022.85 1022.94
1013.11 1012.98 1012.93 1012.97 1013.08 1013.26 1013.51 1013.80 1014.12 1014.46 1014.82 1015.19 1015.58 1015.99 1016.42 1016.87 1017.33 1017.81 1018.28 1018.73 1019.16 1019.54 1019.87 1020.15 1020.38 1020.57 1020.72 1020.87 1021.00 1021.14 1021.30 1021.46 1021.63 1021.81 1021.98 1022.14 1022.29 1022.41 1022.52 1022.62 1022.71 1022.80 1022.90
1013.27 1013.17 1013.15 1013.21 1013.34 1013.54 1013.78 1014.06 1014.35 1014.66 1014.97 1015.29 1015.62 1015.97 1016.34 1016.74 1017.15 1017.58 1018.01 1018.43 1018.82 1019.17 1019.47 1019.72 1019.93 1020.11 1020.26 1020.39 1020.54 1020.69 1020.86 1021.05 1021.26 1021.47 1021.68 1021.89 1022.07 1022.24 1022.39 1022.51 1022.63 1022.73 1022.84
1013.38 1013.30 1013.30 1013.38 1013.53 1013.73 1013.98 1014.24 1014.52 1014.79 1015.06 1015.34 1015.62 1015.91 1016.22 1016.56 1016.91 1017.28 1017.65 1018.01 1018.34 1018.65 1018.91 1019.14 1019.33 1019.49 1019.64 1019.79 1019.95 1020.14 1020.34 1020.57 1020.82 1021.08 1021.34 1021.59 1021.82 1022.02 1022.20 1022.36 1022.50 1022.62 1022.73
1013.46 1013.38 1013.39 1013.48 1013.63 1013.84 1014.07 1014.32 1014.57 1014.82 1015.06 1015.29 1015.52 1015.76 1016.01 1016.28 1016.57 1016.86 1017.17 1017.46 1017.74 1017.99 1018.22 1018.41 1018.59 1018.75 1018.91 1019.09 1019.28 1019.50 1019.75 1020.03 1020.32 1020.62 1020.93 1021.21 1021.48 1021.72 1021.93 1022.11 1022.27 1022.41 1022.54
1013.58 1013.49 1013.49 1013.57 1013.70 1013.88 1014.09 1014.31 1014.52 1014.73 1014.93 1015.11 1015.29 1015.48 1015.67 1015.88 1016.10 1016.33 1016.57 1016.80 1017.02 1017.23 1017.42 1017.59 1017.76 1017.93 1018.11 1018.31 1018.54 1018.79 1019.09 1019.40 1019.74 1020.08 1020.41 1020.73 1021.02 1021.29 1021.52 1021.72 1021.90 1022.07 1022.22
Thickness
5663 5668 5672 5676 5678 5681 5683 5683 5683 5684 5684 5683 5681 5680 5680 5681 5681 5682 5682 5681 5681 5680 5678 5677 5676 5676 5674 5673 5672 5670 5669 5667 5666 5663 5662 5665 5667 5667 5667 5665 5661 5657 5653
5656 5660 5664 5668 5671 5673 5676 5678 5678 5678 5679 5678 5677 5677 5676 5675 5675 5675 5675 5674 5673 5673 5672 5671 5670 5669 5668 5666 5665 5663 5661 5661 5659 5655 5652 5652 5657 5661 5663 5660 5655 5651 5646
5650 5653 5657 5661 5664 5666 5669 5671 5672 5673 5672 5672 5671 5670 5668 5667 5667 5666 5666 5666 5665 5664 5664 5663 5662 5661 5660 5659 5658 5656 5654 5652 5652 5650 5644 5641 5641 5646 5651 5651 5647 5643 5638
5649 5650 5653 5655 5658 5660 5662 5663 5664 5664 5664 5665 5664 5662 5660 5658 5659 5659 5658 5657 5656 5655 5655 5654 5653 5653 5652 5651 5650 5649 5647 5644 5642 5642 5641 5638 5636 5632 5633 5636 5635 5632 5628
5645 5646 5649 5651 5652 5653 5653 5654 5655 5655 5656 5656 5656 5656 5655 5653 5652 5651 5649 5648 5647 5646 5645 5643 5643 5643 5642 5641 5640 5639 5638 5636 5635 5633 5632 5631 5629 5627 5622 5621 5621 5619 5616
5640 5642 5643 5644 5643 5643 5643 5643 5644 5645 5647 5647 5647 5647 5646 5644 5642 5640 5639 5638 5637 5636 5634 5632 5632 5632 5631 5630 5630 5629 5628 5627 5626 5625 5624 5621 5619 5618 5615 5613 5611 5608 5605
5634 5634 5634 5633 5632 5632 5632 5633 5634 5635 5636 5637 5637 5636 5636 5635 5632 5630 5629 5627 5626 5624 5623 5621 5620 5620 5619 5619 5619 5618 5617 5617 5616 5615 5613 5612 5611 5609 5608 5606 5603 5600 5596
5627 5628 5627 5626 5624 5623 5622 5623 5624 5624 5625 5625 5625 5625 5624 5623 5621 5619 5617 5616 5614 5612 5611 5610 5608 5608 5608 5607 5607 5607 5607 5606 5605 5604 5603 5601 5599 5597 5596 5594 5592 5589 5585
5619 5619 5618 5618 5616 5615 5614 5614 5614 5614 5613 5613 5613 5612 5611 5609 5607 5605 5604 5602 5601 5600 5599 5597 5596 5596 5596 5596 5596 5596 5595 5594 5593 5592 5591 5589 5587 5586 5584 5582 5580 5578 5575
5609 5611 5610 5609 5608 5607 5606 5605 5604 5603 5602 5602 5601 5600 5598 5596 5594 5592 5590 5589 5588 5587 5586 5585 5585 5584 5584 5584 5584 5584 5583 5582 5581 5580 5579 5577 5575 5574 5572 5570 5568 5566 5564
5599 5600 5600 5600 5599 5597 5595 5594 5593 5592 5590 5589 5587 5586 5584 5582 5580 5579 5577 5576 5575 5574 5573 5573 5573 5572 5572 5572 5572 5572 5571 5570 5568 5567 5566 5564 5562 5560 5558 5557 5555 5552 5550
5592 5592 5591 5590 5588 5586 5585 5583 5582 5580 5578 5577 5575 5573 5571 5569 5567 5566 5564 5563 5562 5561 5561 5560 5560 5559 5559 5559 5559 5558 5557 5556 5555 5553 5552 5550 5548 5546 5544 5543 5541 5538 5536
5585 5584 5583 5581 5579 5577 5576 5574 5572 5570 5567 5565 5563 5561 5559 5557 5555 5553 5551 5550 5549 5548 5547 5547 5546 5545 5545 5545 5544 5544 5543 5542 5540 5539 5537 5535 5534 5531 5530 5529 5527 5525 5524
5578 5578 5575 5574 5573 5571 5569 5566 5563 5561 5558 5555 5553 5550 5548 5545 5543 5541 5539 5537 5536 5535 5534 5534 5532 5532 5531 5530 5530 5529 5528 5527 5525 5523 5522 5520 5519 5517 5516 5515 5513 5513 5511
5572 5572 5570 5568 5567 5565 5562 5559 5556 5552 5550 5546 5543 5540 5538 5535 5532 5529 5527 5525 5524 5523 5522 5521 5519 5519 5518 5516 5515 5515 5514 5512 5510 5508 5507 5506 5505 5504 5503 5502 5500 5499 5498
5567 5567 5566 5565 5562 5560 5557 5553 5549 5545 5541 5537 5534 5531 5528 5524 5520 5518 5516 5514 5512 5511 5510 5509 5507 5506 5505 5503 5502 5501 5500 5499 5497 5495 5493 5492 5491 5491 5490 5490 5489 5488 5486
5560 5561 5561 5560 5558 5556 5552 5547 5542 5538 5533 5529 5526 5522 5518 5514 5511 5508 5505 5503 5501 5499 5498 5497 5495 5493 5492 5491 5490 5489 5487 5485 5484 5482 5481 5481 5480 5479 5478 5478 5477 5476 5475
5549 5552 5553 5554 5553 5551 5546 5541 5535 5529 5525 5521 5517 5513 5509 5505 5501 5498 5495 5492 5490 5488 5487 5485 5484 5482 5481 5479 5478 5476 5474 5473 5472 5471 5470 5469 5468 5468 5467 5467 5465 5463 5462
5537 5540 5544 5545 5545 5542 5538 5532 5526 5520 5516 5512 5509 5505 5501 5496 5492 5489 5485 5483 5480 5478 5476 5474 5473 5471 5470 5468 5466 5465 5463 5462 5461 5461 5460 5459 5458 5459 5459 5457 5455 5453 5452
5525 5528 5532 5534 5533 5531 5528 5522 5516 5511 5508 5505 5501 5497 5493 5489 5484 5481 5477 5474 5471 5468 5466 5464 5463 5461 5460 5459 5458 5456 5454 5453 5452 5451 5451 5451 5450 5450 5449 5447 5446 5444 5443
5514 5516 5519 5518 5517 5517 5515 5510 5506 5502 5500 5496 5493 5488 5484 5481 5477 5473 5469 5466 5463 5460 5457 5455 5454 5453 5452 5452 5451 5449 5447 5446 5444 5444 5443 5443 5443 5442 5441 5440 5438 5437 5435
5503 5504 5503 5503 5503 5503 5501 5498 5495 5493 5490 5487 5483 5479 5475 5473 5469 5465 5462 5458 5456 5452 5450 5448 5447 5446 5446 5445 5444 5443 5441 5440 5438 5437 5437 5436 5436 5434 5433 5432 5431 5429 5427
5491 5491 5491 5491 5491 5491 5490 5487 5485 5483 5480 5477 5473 5470 5467 5465 5462 5458 5455 5452 5450 5447 5445 5444 5443 5441 5441 5440 5440 5439 5437 5435 5433 5432 5431 5430 5429 5427 5425 5424 5423 5421 5417
5480 5480 5481 5480 5480 5480 5480 5479 5477 5475 5472 5468 5465 5463 5460 5457 5455 5452 5450 5448 5446 5443 5442 5440 5439 5437 5436 5435 5434 5433 5432 5431 5429 5426 5425 5424 5422 5420 5418 5416 5414 5412 5409
5469 5469 5469 5470 5470 5471 5470 5470 5468 5466 5463 5461 5458 5456 5454 5451 5449 5447 5446 5444 5443 5441 5439 5438 5436 5434 5432 5433 5432 5428 5426 5424 5423 5421 5418 5415 5413 5411 5409 5408 5406 5404 5401
5458 5458 5459 5459 5460 5460 5460 5460 5459 5458 5456 5454 5452 5450 5448 5446 5444 5442 5440 5440 5439 5438 5437 5435 5433 5432 5431 5430 5429 5426 5424 5422 5419 5416 5412 5410 5408 5406 5404 5402 5399 5397 5394